星链-1303 (STARLINK-1303 )

导读 | 星芒AI

STARLINK-1303 是 SpaceX Starlink 项目中的一颗低轨通信卫星,属于第 13 批发射的 Starlink 卫星群。该卫星设计用于提供全球高速互联网服务,主要面向偏远和网络覆盖不足的地区。它运行在约 550 公里的轨道高度,配备先进的相控阵天线和激光通信系统,以实现高速、低延迟的数据传输。STARLINK-1303 采用可再生推进系统,并具备自主变轨和避碰能力,有助于减少太空碎片风险。作为 Starlink 网络的一部分,该卫星为全球互联网接入提供了重要支持。

基本信息
目录编号:
45396
目录名称:
STARLINK-1303
国际标识:
2020-019AN
轨道中心:
EARTH
卫星名称:
星链-1303
卫星全名:
星链-1303 (STARLINK-1303 )
卫星状态:
已陨落 最后检测时间 2025-04-06
发射日期:
2020-03-18 UTC
国别 :
美国 (US)
星等 :
--
轨道信息
数据来源 国际轨道数据
星历时间: 2025-04-05T14:00:35+0800
轨道信息已过期207天
半长轴: 6618.953km
偏心率: 0.0009896
轨道倾角: 53.035°
近地点辐角 341.744°
升交点赤经 165.393°
平近点角 124.878°
近地点: 234.267km
远地点: 247.369km
周期: 89.319分钟
每日圈数: 16.121999
详细信息
固有亮度:
5
最大亮度:
2.5
卫星平台:
Starlink V1.0
覆盖范围:
全球
运营商:
太空探索技术公司
运营商所在国:
美国
制造商(研发单位):
太空探索技术公司
制造商所在国:
美国
使用方式:
暂无
卫星简介
星链(Starlink)计划是由太空探索技术公司(SpaceX)提出的一个巨型低轨卫星互联网星座项目,计划在2019年至2024年间在太空搭建由约1.2万颗卫星组成的“星链”网络,其中1584颗将部署在地球上空550千米处的近地轨道,并从2020年开始工作。该卫星仍在工作。